Regional Weather Roundup
Issued by NWS

Home | Current Version | Previous Version | Graphics & Text | Print | Product List | Glossary On
Versions: 1 2 3 4 5 6 7 8 9 10 11 12 13 14 15 16 17 18 19 20 21 22 23 24 25 26 27 28 29 30 31 32 33 34 35 36 37 38 39 40 41 42 43 44 45 46 47 48 49 50
000
ASUS43 KLMK 030302
RWRKY
KENTUCKY REGIONAL WEATHER ROUNDUP
NATIONAL WEATHER SERVICE LOUISVILLE KY
1100 PM EDT SUN AUG 02 2015

NOTE "FAIR" INDICATES FEW OR NO CLOUDS BELOW 12,000 FEET
WITH NO SIGNIFICANT WEATHER AND/OR OBSTRUCTIONS TO VISIBILITY.

KYZ001>023-026-027-061>063-070>075-030400-
WESTERN AND SOUTH CENTRAL KENTUCKY

CITY           SKY/WX    TMP DP  RH WIND       PRES   REMARKS
PADUCAH        CLEAR     80  71  74 S3        29.88R
HENDERSON      CLEAR     75  68  78 S6        29.87S
OWENSBORO      CLEAR     75  68  79 S5        29.90R
HOPKINSVILLE   NOT AVBL
BOWLING GREEN  CLEAR     72  63  73 CALM      29.92R
GLASGOW        NOT AVBL
$$

KYZ024-025-028>034-038-045-046-053-030400-
NORTH CENTRAL KENTUCKY

CITY           SKY/WX    TMP DP  RH WIND       PRES   REMARKS
LOUISVILLE/SDF CLEAR     79  62  56 S7        29.90R
LOUISVILLE/LOU CLEAR     79  64  60 S3        29.91R
FORT KNOX      NOT AVBL
$$

KYZ035>037-039>044-047>052-055>060-089>105-030400-
NORTHEAST KENTUCKY

CITY           SKY/WX    TMP DP  RH WIND       PRES   REMARKS
LEXINGTON      CLEAR     71  62  73 CALM      29.93R
COVINGTON      CLEAR     71  61  70 S6        29.91R
FRANKFORT      CLEAR     70  62  76 SW5       29.91R
$$

KYZ054-064>069-076>088-106>120-030400-
SOUTHEAST KENTUCKY

CITY           SKY/WX    TMP DP  RH WIND       PRES   REMARKS
JACKSON        CLEAR     74  59  59 SE3       29.95F
LONDON         CLEAR     71  63  75 CALM      29.95S
SOMERSET       NOT AVBL
MIDDLESBORO    CLEAR     67  61  81 CALM      29.97S
MONTICELLO     CLEAR     66  65  97 CALM      29.97R
$$




USA.gov is the U.S. government's official web portal to all federal, state and local government web resources and services.